COSMOS 2010

Satellite information

Favourite Embed

Satellite Type and Status

PAYLOADIN ORBIT

Key statistics

Satellite COSMOS 2010 at a glance.

Uptime

13419

Days in orbit

Revolutions

≈ 12.5

Per day

Orbit

LEO

Low Earth Orbit

Inclination

74.0

Latest

Satellite identification and parameters

Extended collection of information and parameters for COSMOS 2010.

Object identification

Identified? True

Debris? False

Object name: COSMOS 2010

International designator: 1989-025C

Object number (NORAD): 19904

Object ID (CCSDS): 19904

Country: COMMONWEALTH OF INDEPENDENT STATES (CIS)

Current information (Y/N): Y

RCS size: MEDIUM

Orbital parameters

Period: 114.826 minutes

Inclination: 74.0116 deg

SMA: 7825.654 km

Apoapsis: 1471.801 km

Periapsis: 1423.238 km

RAAN: 49.8332 deg

Eccentricy: 0.00310281

Argument of periapsis: 333.969 deg

Mean anomaly: 142.707 deg

Mean motion: 12.54069944 rev/day

Mean motion (dot): 0.00000002 rev/day2

B* drag term: 0.00011434671 1/REarth

Two-line elements (TLE)

Creation date: Dec. 18, 2025, 8:02 p.m.

Reference frame: TEME

Reference center: EARTH

Epoch: Dec. 18, 2025, 1:39 p.m. UTC

TLE line 0: 0 COSMOS 2010

TLE line 1: 1 19904U 89025C 25352.56941611 .00000002 00000-0 11435-3 0 9996

TLE line 2: 2 19904 74.0116 49.8332 0031028 333.9690 142.7070 12.54069944595318

Live tracking on map

Real-time ground track for satellite COSMOS 2010.

In-orbit conjunctions

A list of the most updated potential collisions computed for object COSMOS 2010.

Target Orbit TCA Probability of collision Miss distance Type
COSMOS 1256 LEO 2024-07-30 16:40:17 0.0004778976 44.0 (m) PAYLOAD
DELTA 1 DEB SSO 2024-06-02 23:10:21 0.0001010249 432.0 (m) DEBRIS

Associated space launch

Military communications satellites

COSMOS 2010 was lifted into orbit during the mission ‘Kosmos-3M | Strela-1M 337-344’, on board a Kosmos-3M space rocket.

The launch took place on March 24, 1989, 1:38 p.m. from 132/2.

For more information about the launch, click the button.

Launch to space Kosmos-3M | Strela-1M 337-344
Kosmos-3M | Strela-1M 337-344

Agency: N/A

Status: Launch Successful

Launch date: March 24, 1989, 1:38 p.m. UTC

Rocket: Kosmos-3M

Launch pad: 132/2

Location: Plesetsk Cosmodrome, Russian Federation

...

Latest news about this satellite

There are no fresh news available about this satellite. Check back as we update our databases every day.


Newsletter sign-up

Weekly statistics, charts and insights to help you stay on top of the space industry.